Precipitable_Water
1.63 1.73 1.81 1.79 1.75 1.73 1.75 1.68 1.57 1.50 1.47 1.41 1.36 1.31 1.26 1.24 1.22 1.24 1.28 1.32 1.34 1.36 1.40 1.50 1.58 1.55 1.52 1.47 1.45 1.42 1.40 1.41 1.42 1.44 1.48 1.58 1.65 1.71 1.71 1.78 1.87 1.83 1.85
1.62 1.71 1.75 1.74 1.70 1.66 1.68 1.66 1.56 1.48 1.40 1.33 1.28 1.24 1.22 1.23 1.26 1.30 1.33 1.33 1.35 1.40 1.47 1.54 1.58 1.55 1.50 1.46 1.44 1.48 1.50 1.50 1.55 1.58 1.59 1.67 1.69 1.73 1.75 1.84 1.92 1.93 1.85
1.55 1.65 1.74 1.72 1.66 1.53 1.51 1.53 1.52 1.46 1.42 1.36 1.31 1.29 1.30 1.29 1.32 1.34 1.35 1.37 1.43 1.43 1.49 1.56 1.53 1.54 1.56 1.63 1.65 1.65 1.65 1.61 1.64 1.68 1.74 1.88 1.91 1.96 1.84 1.86 1.96 1.97 1.84
1.58 1.59 1.62 1.66 1.61 1.46 1.40 1.41 1.42 1.42 1.42 1.41 1.42 1.42 1.37 1.37 1.40 1.45 1.45 1.45 1.50 1.53 1.51 1.49 1.51 1.57 1.69 1.71 1.72 1.73 1.68 1.75 1.71 1.80 2.04 2.10 1.97 1.85 1.93 1.94 1.96 1.98 1.91
1.59 1.58 1.56 1.57 1.55 1.47 1.42 1.43 1.44 1.43 1.43 1.45 1.61 1.66 1.59 1.59 1.55 1.52 1.52 1.49 1.45 1.46 1.47 1.55 1.65 1.65 1.62 1.60 1.64 1.66 1.69 1.72 1.74 1.87 1.91 2.07 1.97 1.93 1.94 1.97 1.94 1.95 2.00
1.55 1.61 1.61 1.56 1.56 1.46 1.42 1.44 1.47 1.48 1.55 1.69 1.76 1.74 1.73 1.66 1.60 1.55 1.51 1.52 1.50 1.56 1.62 1.64 1.63 1.59 1.57 1.56 1.58 1.61 1.64 1.71 1.65 1.85 1.93 1.98 2.04 1.96 1.94 2.04 1.91 1.96 2.04
1.56 1.62 1.64 1.61 1.65 1.63 1.62 1.65 1.67 1.71 1.73 1.73 1.72 1.71 1.72 1.69 1.63 1.63 1.64 1.64 1.65 1.65 1.63 1.59 1.57 1.59 1.61 1.63 1.69 1.73 1.69 1.62 1.65 1.84 1.89 1.95 2.06 2.06 1.92 1.91 1.89 1.99 2.02
1.54 1.58 1.63 1.64 1.65 1.65 1.66 1.65 1.68 1.66 1.63 1.58 1.55 1.56 1.58 1.65 1.65 1.64 1.62 1.62 1.66 1.62 1.58 1.61 1.66 1.68 1.70 1.71 1.73 1.77 1.76 1.69 1.62 1.72 1.83 1.91 1.99 2.07 1.97 1.78 1.84 2.03 2.07
1.55 1.45 1.54 1.58 1.61 1.61 1.62 1.64 1.63 1.61 1.58 1.55 1.54 1.51 1.47 1.50 1.58 1.65 1.68 1.65 1.65 1.69 1.80 1.83 1.90 1.95 1.95 1.94 1.93 1.83 1.80 1.79 1.79 1.64 1.74 1.79 1.89 1.92 1.88 1.84 1.85 1.96 2.04
1.58 1.49 1.39 1.50 1.54 1.57 1.57 1.57 1.54 1.52 1.54 1.67 1.71 1.67 1.62 1.58 1.62 1.67 1.74 1.68 1.68 1.87 2.07 2.15 2.22 2.22 2.13 2.08 2.06 1.98 1.91 1.86 1.89 1.77 1.82 1.85 1.87 1.86 1.82 1.75 1.75 1.82 1.87
1.62 1.60 1.34 1.38 1.46 1.49 1.51 1.52 1.53 1.54 1.65 1.77 1.72 1.67 1.68 1.66 1.63 1.79 1.91 1.93 1.99 2.09 2.21 2.34 2.39 2.24 2.15 2.08 1.99 1.87 1.85 1.79 1.83 1.84 1.90 1.87 1.74 1.70 1.73 1.69 1.61 1.61 1.67
1.38 1.41 1.24 1.29 1.31 1.39 1.43 1.42 1.46 1.50 1.58 1.63 1.63 1.62 1.58 1.55 1.79 1.86 1.93 2.01 2.04 2.15 2.32 2.31 2.14 2.06 1.96 2.05 2.00 1.98 1.93 1.90 1.89 1.99 2.04 2.03 1.91 1.81 1.82 1.82 1.67 1.58 1.57
1.31 1.37 1.31 1.32 1.29 1.29 1.39 1.44 1.42 1.53 1.51 1.45 1.50 1.58 1.59 1.65 1.74 1.87 1.91 1.93 2.05 2.09 2.25 2.10 2.08 2.23 2.29 2.28 2.19 2.22 2.20 2.08 2.07 2.13 2.17 2.18 2.11 1.95 1.90 1.88 1.78 1.69 1.63
1.25 1.33 1.34 1.35 1.33 1.33 1.41 1.47 1.53 1.46 1.58 1.56 1.55 1.57 1.51 1.51 1.60 1.66 1.87 1.92 1.93 2.03 2.25 2.14 2.12 2.06 2.07 2.33 2.27 2.38 2.42 2.28 2.20 2.27 2.21 2.23 2.26 2.12 1.94 1.94 1.79 1.73 1.70
1.25 1.32 1.32 1.37 1.31 1.30 1.38 1.49 1.54 1.51 1.57 1.57 1.56 1.58 1.59 1.42 1.38 1.51 1.63 1.77 1.84 1.88 1.96 2.00 2.04 2.10 2.11 2.15 2.01 2.03 2.23 2.25 2.29 2.29 2.20 2.24 2.46 2.30 2.10 1.97 1.84 1.72 1.68
1.18 1.24 1.29 1.34 1.35 1.31 1.35 1.46 1.45 1.50 1.55 1.53 1.55 1.53 1.55 1.48 1.42 1.48 1.62 1.67 1.62 1.76 1.93 1.89 1.89 2.02 2.21 2.19 1.72 1.95 1.92 1.95 2.18 2.27 2.61 2.19 2.21 2.26 2.14 2.09 2.08 1.87 1.75
1.08 1.17 1.24 1.29 1.34 1.37 1.33 1.40 1.39 1.41 1.47 1.39 1.45 1.47 1.50 1.50 1.46 1.44 1.52 1.56 1.60 1.78 2.04 1.83 1.84 1.95 1.91 2.08 1.93 2.13 2.11 2.09 2.14 2.23 2.46 2.27 2.26 2.15 2.09 1.98 2.10 1.99 1.89
1.03 1.08 1.19 1.24 1.27 1.31 1.36 1.31 1.35 1.36 1.44 1.50 1.45 1.50 1.46 1.45 1.48 1.41 1.40 1.43 1.53 1.75 1.86 1.82 1.74 1.77 1.72 1.96 1.90 1.88 2.00 2.26 1.99 2.02 2.42 2.54 2.14 2.13 2.06 1.91 1.93 2.06 1.94
1.03 1.08 1.15 1.20 1.20 1.24 1.28 1.29 1.28 1.33 1.35 1.42 1.45 1.42 1.38 1.39 1.47 1.46 1.31 1.39 1.58 1.69 1.71 1.76 1.71 1.83 1.73 1.73 1.75 2.08 2.06 1.93 2.05 2.24 2.11 2.37 2.77 2.44 2.17 2.17 2.06 2.09 2.02
1.15 1.15 1.15 1.19 1.26 1.27 1.33 1.35 1.32 1.30 1.31 1.37 1.33 1.34 1.41 1.39 1.43 1.45 1.42 1.34 1.45 1.51 1.54 1.61 1.66 1.72 1.62 1.66 1.91 1.85 1.80 2.00 2.07 2.16 1.72 1.97 2.20 2.26 2.12 2.40 2.27 2.18 2.06
1.19 1.17 1.17 1.18 1.27 1.32 1.30 1.26 1.26 1.18 1.21 1.22 1.24 1.25 1.31 1.39 1.43 1.44 1.44 1.48 1.44 1.48 1.52 1.56 1.68 1.69 1.66 1.69 1.69 1.61 1.74 1.82 1.80 1.89 1.87 1.81 2.01 2.02 2.25 2.50 2.31 2.06 2.14
1.15 1.20 1.19 1.21 1.29 1.33 1.35 1.35 1.35 1.33 1.32 1.28 1.28 1.29 1.29 1.45 1.52 1.48 1.45 1.45 1.45 1.41 1.48 1.54 1.59 1.51 1.54 1.66 1.45 1.44 1.24 1.43 1.64 1.65 1.58 1.40 1.92 1.99 1.69 2.17 2.11 2.09 2.17
1.15 1.19 1.22 1.26 1.35 1.34 1.38 1.40 1.42 1.45 1.38 1.40 1.45 1.42 1.45 1.50 1.56 1.59 1.62 1.59 1.51 1.48 1.38 1.43 1.44 1.40 1.26 1.67 1.65 1.52 1.30 1.11 1.39 1.54 1.37 1.47 1.64 1.62 2.05 2.03 2.00 2.05 2.04
1.13 1.26 1.30 1.38 1.40 1.45 1.48 1.45 1.35 1.32 1.28 1.39 1.54 1.60 1.63 1.68 1.70 1.70 1.71 1.75 1.72 1.64 1.53 1.45 1.45 1.41 1.42 1.44 1.67 1.76 1.80 1.65 1.45 1.38 1.52 1.49 1.74 1.69 1.87 2.05 1.95 1.95 2.07
1.25 1.30 1.32 1.41 1.49 1.48 1.54 1.52 1.44 1.42 1.46 1.57 1.69 1.67 1.70 1.80 1.84 1.84 1.84 1.89 1.91 1.86 1.68 1.53 1.44 1.40 1.43 1.45 1.53 1.59 1.60 1.70 1.69 1.56 1.36 1.57 1.75 1.78 1.91 2.10 2.02 1.99 2.10
1.28 1.36 1.48 1.52 1.51 1.57 1.55 1.53 1.58 1.55 1.52 1.64 1.66 1.72 1.74 1.78 1.92 1.98 1.99 1.95 1.99 2.05 2.00 1.88 1.75 1.54 1.46 1.49 1.53 1.60 1.58 1.52 1.53 1.54 1.52 1.59 1.57 1.69 1.72 1.94 2.02 1.96 2.04
Wind_Speed
18 19 18 18 17 17 18 18 18 18 18 17 17 16 16 15 14 13 12 11 9 8 6 5 4 3 3 2 1 1 1 1 1 1 1 1 1 2 3 3 3 4 5
20 19 18 18 18 18 18 18 18 17 17 16 15 14 13 13 12 11 10 8 7 6 5 4 3 2 1 1 1 1 1 1 2 1 0 0 1 2 3 3 3 4 5
20 19 19 18 18 18 18 18 18 17 16 15 14 12 11 10 10 8 7 6 5 4 3 2 2 1 1 1 1 1 1 2 1 1 1 0 2 3 2 3 4 5 4
20 19 19 19 18 18 18 17 16 16 15 13 12 10 9 8 8 7 6 5 4 3 2 1 1 1 2 2 2 2 2 2 1 1 1 0 1 3 3 4 4 5 4
20 19 19 18 18 17 17 16 15 14 13 11 10 9 7 7 7 6 5 4 3 2 2 1 1 1 2 2 2 2 2 2 2 2 2 1 2 4 3 3 4 4 5
19 19 19 18 17 17 16 15 14 12 11 10 9 8 7 6 6 5 4 2 2 2 1 1 1 2 2 2 2 2 1 2 2 2 2 2 3 2 2 3 4 4 5
19 19 18 17 16 16 15 14 13 11 10 9 8 7 6 6 5 3 3 2 1 1 1 1 2 2 2 2 2 1 1 1 1 1 2 2 1 1 2 2 3 5 4
18 18 17 16 15 14 13 12 11 10 9 7 6 5 5 4 3 2 2 1 1 0 1 1 2 2 2 2 2 1 1 0 0 0 0 1 1 2 2 2 1 3 5
17 16 15 14 14 13 12 11 10 9 7 6 5 4 4 3 2 2 2 1 1 1 2 2 2 3 3 3 2 2 1 1 1 1 1 1 2 1 2 3 2 2 5
15 14 13 13 12 12 11 10 9 7 6 5 4 4 3 2 2 1 1 1 0 1 1 3 4 5 4 4 4 4 3 2 2 2 1 1 1 1 1 1 1 1 3
13 11 12 12 11 10 9 9 7 6 5 4 4 3 2 2 1 1 0 0 1 3 4 6 6 5 5 5 5 4 4 3 2 1 2 1 1 2 0 1 2 1 3
13 11 11 11 10 10 9 8 7 6 5 4 3 3 2 2 1 2 2 3 4 5 5 7 5 6 5 5 5 5 4 3 2 2 2 2 2 2 1 2 2 1 3
12 11 11 10 10 9 8 7 6 5 4 4 4 3 3 2 2 3 4 4 4 5 6 6 7 6 6 6 7 7 4 4 5 5 5 6 5 5 4 3 2 1 2
13 11 11 10 9 8 8 7 4 5 5 4 4 4 3 4 4 5 4 5 6 6 7 7 8 8 12 7 7 9 5 6 6 7 8 8 9 7 7 5 3 2 2
11 10 9 9 8 7 7 6 4 4 5 5 5 4 4 4 4 4 4 5 6 7 6 7 8 9 9 8 13 12 9 8 8 9 10 11 10 10 9 8 6 4 3
10 9 8 9 7 6 5 5 4 4 6 5 6 6 6 6 5 6 7 7 7 7 8 8 10 10 10 9 12 9 8 8 10 11 15 3 7 7 8 9 8 6 5
8 7 8 8 6 4 5 4 4 5 4 5 5 6 7 7 8 8 8 7 8 9 7 8 10 10 11 10 11 10 9 9 10 12 7 9 8 10 9 9 9 8 8
8 7 6 6 6 5 5 6 6 6 5 6 7 6 7 7 7 8 9 10 9 9 9 10 10 10 11 11 11 11 11 10 13 14 11 10 8 11 7 7 10 8 9
8 7 6 5 5 4 4 5 6 7 7 7 7 8 7 7 7 8 8 9 10 11 11 12 11 12 12 13 13 12 12 13 13 11 12 17 16 11 10 8 7 8 10
7 6 5 4 3 3 2 3 4 5 6 7 7 7 7 8 8 8 8 9 9 11 11 11 12 12 12 13 12 12 13 13 13 12 12 15 13 12 17 8 8 7 9
7 6 5 3 2 2 1 1 2 3 4 5 6 7 6 7 8 8 9 9 10 11 11 11 11 11 12 12 13 12 11 11 12 12 14 13 14 11 8 9 9 7 8
7 6 5 3 2 2 1 1 2 3 4 4 5 5 6 7 7 8 9 10 11 11 11 11 10 12 13 12 12 11 11 12 11 13 14 13 7 10 9 8 10 9 8
7 8 6 5 4 3 3 3 3 3 4 4 5 5 6 8 9 10 10 11 11 12 12 12 12 12 13 13 12 11 12 11 13 13 13 11 10 12 8 8 9 9 9
10 9 9 8 7 6 5 5 5 5 5 6 6 8 8 9 9 11 11 12 13 13 13 13 13 14 13 13 13 13 13 13 12 13 12 12 11 11 10 8 11 11 12
10 11 11 11 10 9 9 9 9 8 9 9 9 9 11 12 12 12 13 13 13 14 14 15 15 15 14 14 14 14 14 14 14 14 14 13 13 13 13 12 12 13 14
12 12 12 12 13 12 12 12 11 11 11 11 12 13 14 14 15 16 17 17 17 17 17 16 16 17 18 18 18 17 16 16 16 15 16 16 15 15 14 16 16 16 15
Wind_Direction
138 137 135 133 130 128 127 126 126 125 125 124 123 122 121 120 120 121 122 123 124 124 122 117 113 108 99 93 80 47 28 29 31 45 70 83 102 117 134 141 136 145 141
137 138 137 135 132 130 129 128 127 126 126 126 125 125 124 124 124 123 123 124 125 125 120 114 107 100 80 59 30 2 341 324 320 332 13 99 156 165 162 170 183 167 162
137 136 136 136 133 132 130 129 128 127 126 126 127 127 128 129 130 129 127 127 126 127 124 113 103 76 35 18 11 352 336 328 313 314 275 198 292 221 188 173 169 168 172
138 136 135 135 135 134 133 132 131 129 127 126 126 128 133 135 136 135 133 129 123 120 117 105 80 38 40 48 44 36 35 37 43 88 58 357 17 228 194 178 179 183 182
138 138 136 136 135 136 136 135 133 133 130 128 126 126 132 142 143 140 136 128 120 108 96 86 53 40 41 35 25 31 40 48 66 76 78 79 88 106 156 184 192 189 187
139 140 138 137 136 137 138 139 137 136 133 131 127 122 122 135 142 140 142 136 118 95 75 50 26 6 346 349 351 2 17 34 55 117 70 92 117 79 96 182 195 188 193
140 141 140 139 139 138 139 140 139 137 135 134 133 129 120 123 138 144 153 147 122 84 43 15 352 339 336 333 330 340 344 358 63 75 107 75 128 103 69 136 193 208 206
140 143 143 143 142 142 142 142 143 142 140 140 140 139 134 124 116 121 157 166 156 29 353 346 337 333 330 328 328 323 330 352 9 179 154 352 181 139 64 70 120 181 178
141 144 145 146 147 147 146 147 146 146 146 147 149 150 144 140 125 90 145 148 197 301 308 319 317 309 306 298 293 285 280 287 282 247 269 358 162 144 54 47 78 153 187
144 146 151 152 153 153 153 153 152 152 152 151 150 152 151 140 136 112 89 192 260 346 337 321 312 298 290 280 271 266 263 267 268 258 231 57 188 224 10 22 31 189 203
147 151 157 159 160 160 161 162 163 164 164 162 165 165 164 163 169 158 70 38 290 305 306 309 310 305 293 272 262 258 264 259 248 230 221 243 158 196 304 353 339 260 220
150 152 159 162 165 167 168 171 174 179 186 191 196 201 206 229 219 242 272 282 293 305 315 327 308 302 288 280 261 259 250 253 232 219 226 250 218 234 282 323 339 310 223
151 150 157 162 166 170 173 171 177 192 199 208 218 224 237 246 268 274 272 284 305 300 319 329 311 298 292 284 272 261 245 263 258 246 255 252 246 246 261 285 304 299 225
149 150 151 155 159 168 173 181 193 201 205 211 222 232 252 266 281 281 276 275 293 306 311 316 340 315 302 284 297 292 280 277 264 258 264 261 240 243 250 256 269 267 246
155 155 157 158 162 167 174 185 198 205 216 234 239 247 258 275 283 277 287 291 291 295 302 310 322 323 333 328 323 306 283 275 268 269 263 262 234 248 245 248 246 245 246
154 159 165 169 171 177 191 200 219 233 240 246 250 257 260 270 278 277 290 286 297 297 297 299 312 315 322 327 335 332 306 284 279 269 250 226 240 234 247 244 240 234 236
158 162 168 177 184 187 203 217 232 239 251 250 268 264 266 269 279 277 281 289 289 303 298 305 310 314 313 317 322 324 322 311 291 276 258 249 252 233 264 254 239 230 230
155 154 158 177 190 209 226 236 248 246 257 273 267 275 269 275 284 285 279 287 285 293 298 306 308 315 312 314 314 315 311 298 308 289 316 253 259 249 248 255 241 234 228
149 149 144 165 186 214 238 248 253 251 260 269 274 272 270 276 285 298 289 287 283 291 296 296 299 308 311 311 305 306 305 301 304 298 295 300 267 251 249 261 235 247 229
157 153 149 140 167 197 238 262 263 258 261 265 268 278 274 273 282 296 300 297 289 293 295 295 293 300 306 311 307 309 309 298 303 300 309 297 286 301 239 252 252 255 237
172 167 162 146 163 178 197 246 276 262 265 271 274 270 282 279 284 292 299 302 297 297 295 297 294 293 306 309 308 310 317 311 305 308 317 312 284 292 281 257 257 266 252
184 189 192 193 170 199 212 254 309 289 272 286 284 289 282 281 288 294 299 300 303 297 299 299 292 296 301 304 305 308 313 310 309 313 317 321 293 297 294 268 267 264 251
204 209 214 222 229 237 252 272 302 317 288 284 281 287 291 289 290 295 299 300 300 298 295 296 294 296 298 297 298 300 309 309 312 312 318 318 300 301 290 278 273 264 255
221 222 228 234 240 249 253 261 276 285 294 285 289 282 290 290 292 293 299 300 299 298 294 293 294 295 298 298 299 296 299 300 304 310 309 305 305 301 286 283 273 264 258
222 227 231 236 244 251 253 261 270 276 281 286 286 291 289 286 286 288 293 298 300 301 297 292 290 289 291 290 294 297 300 297 298 298 302 303 299 291 285 279 277 268 265
233 233 237 241 246 250 253 256 263 268 283 281 280 286 295 290 287 283 283 285 289 291 293 294 293 289 286 285 286 288 290 294 294 295 295 297 292 291 285 284 276 275 270